E25HML-13 Weather Reports


Display with metric or nautical units.
time (UTC)temp
F
wind
direction
speed
MPH
gust
MPH
rain 1hr
in
rain 24hr
in
rain mn
in
humidity
%
barometer
mb
20260509064348 91 0.0 0.0 0.00 0.00 0.00 68 1006.1
20260509063848 91 0.0 0.0 0.00 0.00 0.00 69 1006.1
20260509063348 91 0.0 0.0 0.00 0.00 0.00 69 1006.2
20260509062848 91 0.0 0.0 0.00 0.00 0.00 69 1006.4
20260509062348 90 0.0 0.0 0.00 0.00 0.00 70 1006.5
20260509061848 91 0.0 0.0 0.00 0.00 0.00 70 1006.6
20260509061348 91 0.0 0.0 0.00 0.00 0.00 69 1006.6
20260509060847 90 0.0 0.0 0.00 0.00 0.00 70 1006.8
20260509060347 90 0.0 0.0 0.00 0.00 0.00 70 1006.8
20260509055848 90 0.0 0.0 0.00 0.00 0.00 69 1006.9
20260509055348 90 0.0 0.0 0.00 0.00 0.00 70 1006.9
20260509054847 90 0.0 0.0 0.00 0.00 0.00 69 1007.1
20260509054348 90 0.0 0.0 0.00 0.00 0.00 69 1007.2
20260509053848 90 0.0 0.0 0.00 0.00 0.00 69 1007.3
20260509053347 90 0.0 0.0 0.00 0.00 0.00 69 1007.4
20260509052848 90 0.0 0.0 0.00 0.00 0.00 70 1007.5
20260509052348 90 0.0 0.0 0.00 0.00 0.00 70 1007.7
20260509051848 90 0.0 0.0 0.00 0.00 0.00 70 1007.8
20260509051347 90 0.0 0.0 0.00 0.00 0.00 70 1007.8
20260509050847 90 0.0 0.0 0.00 0.00 0.00 70 1007.9
20260509050348 90 0.0 0.0 0.00 0.00 0.00 71 1008.1
20260509045847 90 0.0 0.0 0.00 0.00 0.00 71 1008.1
20260509045347 90 0.0 0.0 0.00 0.00 0.00 71 1008.2
20260509044848 90 0.0 0.0 0.00 0.00 0.00 71 1008.3
20260509044347 90 0.0 0.0 0.00 0.00 0.00 71 1008.3
20260509043847 90 0.0 0.0 0.00 0.00 0.00 71 1008.4
20260509043348 90 0.0 0.0 0.00 0.00 0.00 71 1008.5
20260509042847 90 0.0 0.0 0.00 0.00 0.00 71 1008.5
20260509042347 91 0.0 0.0 0.00 0.00 0.00 71 1008.6
20260509041847 90 0.0 0.0 0.00 0.00 0.00 71 1008.7
20260509041347 90 0.0 0.0 0.00 0.00 0.00 71 1008.7
20260509040848 90 0.0 0.0 0.00 0.00 0.00 72 1008.8
20260509040348 90 0.0 0.0 0.00 0.00 0.00 72 1008.8
20260509035847 90 0.0 0.0 0.00 0.00 0.00 72 1009.0
20260509035347 90 0.0 0.0 0.00 0.00 0.00 72 1009.0
20260509034848 89 0.0 0.0 0.00 0.00 0.00 72 1009.1
20260509034347 89 0.0 0.0 0.00 0.00 0.00 72 1009.2
20260509033847 89 0.0 0.0 0.00 0.00 0.00 72 1009.4
20260509033347 89 0.0 0.0 0.00 0.00 0.00 73 1009.4
20260509032847 89 0.0 0.0 0.00 0.00 0.00 73 1009.5
20260509032347 89 0.0 0.0 0.00 0.00 0.00 73 1009.7
20260509031847 89 0.0 0.0 0.00 0.00 0.00 73 1009.8
20260509031347 89 0.0 0.0 0.00 0.00 0.00 73 1009.8
20260509030847 89 0.0 0.0 0.00 0.00 0.00 73 1009.9
20260509030347 89 0.0 0.0 0.00 0.00 0.00 74 1010.0
20260509025852 89 0.0 0.0 0.00 0.00 0.00 73 1010.2
20260509025347 89 0.0 0.0 0.00 0.00 0.00 73 1010.3
20260509024848 89 0.0 0.0 0.00 0.00 0.00 74 1010.3
20260509024347 89 0.0 0.0 0.00 0.00 0.00 73 1010.4
20260509023848 88 0.0 0.0 0.00 0.00 0.00 74 1010.2
20260509023347 88 0.0 0.0 0.00 0.00 0.00 74 1010.2
20260509022847 88 0.0 0.0 0.00 0.00 0.00 75 1010.3
20260509022347 88 0.0 0.0 0.00 0.00 0.00 74 1010.2
20260509021347 88 0.0 0.0 0.00 0.00 0.00 74 1010.1
20260509020847 88 0.0 0.0 0.00 0.00 0.00 73 1009.9
20260509020347 88 0.0 0.0 0.00 0.00 0.00 72 1010.0
20260509015847 88 0.0 0.0 0.00 0.00 0.00 73 1010.0
20260509015347 88 0.0 0.0 0.00 0.00 0.00 73 1010.0
20260509014347 88 0.0 0.0 0.00 0.00 0.00 73 1010.1
20260509013847 89 0.0 0.0 0.00 0.00 0.00 73 1010.0
20260509013347 89 0.0 0.0 0.00 0.00 0.00 73 1010.0
20260509012847 89 0.0 0.0 0.00 0.00 0.00 71 1009.9
20260509012347 88 0.0 0.0 0.00 0.00 0.00 74 1009.7
20260509011847 87 0.0 0.0 0.00 0.00 0.00 75 1009.6
20260509011347 88 0.0 0.0 0.00 0.00 0.00 73 1009.5
20260509010847 89 0.0 0.0 0.00 0.00 0.00 70 1009.4
20260509010347 89 0.0 0.0 0.00 0.00 0.00 68 1009.4
20260509005847 89 0.0 0.0 0.00 0.00 0.00 68 1009.3
20260509005347 90 0.0 0.0 0.00 0.00 0.00 68 1009.2
20260509004847 90 0.0 0.0 0.00 0.00 0.00 67 1009.2
20260509004347 90 0.0 0.0 0.00 0.00 0.00 67 1009.2
20260509003847 90 0.0 0.0 0.00 0.00 0.00 67 1009.1
20260509003347 90 0.0 0.0 0.00 0.00 0.00 67 1009.2
20260509002847 90 0.0 0.0 0.00 0.00 0.00 67 1009.2
20260509002347 90 0.0 0.0 0.00 0.00 0.00 67 1009.1
20260509001847 90 0.0 0.0 0.00 0.00 0.00 67 1009.2
20260509001347 90 0.0 0.0 0.00 0.00 0.00 67 1009.0
20260509000847 90 0.0 0.0 0.00 0.00 0.00 67 1008.9
20260509000348 90 0.0 0.0 0.00 0.00 0.00 67 1008.9
20260508235848 90 0.0 0.0 0.00 0.00 0.00 67 1008.8
20260508235347 90 0.0 0.0 0.00 0.00 0.00 67 1008.8
20260508234847 90 0.0 0.0 0.00 0.00 0.00 67 1008.7
20260508234347 91 0.0 0.0 0.00 0.00 0.00 66 1008.8
20260508233847 91 0.0 0.0 0.00 0.00 0.00 66 1008.7
20260508233347 91 0.0 0.0 0.00 0.00 0.00 66 1008.6
20260508232847 90 0.0 0.0 0.00 0.00 0.00 67 1008.4
20260508232347 90 0.0 0.0 0.00 0.00 0.00 67 1008.3
20260508231847 90 0.0 0.0 0.00 0.00 0.00 67 1008.2
20260508231347 90 0.0 0.0 0.00 0.00 0.00 67 1008.1
20260508230847 90 0.0 0.0 0.00 0.00 0.00 67 1008.0
20260508230346 91 0.0 0.0 0.00 0.00 0.00 66 1007.9
20260508225847 91 0.0 0.0 0.00 0.00 0.00 66 1007.9
20260508225347 91 0.0 0.0 0.00 0.00 0.00 66 1007.8
20260508224847 91 0.0 0.0 0.00 0.00 0.00 66 1007.7
20260508224346 90 0.0 0.0 0.00 0.00 0.00 66 1007.6
20260508223847 91 0.0 0.0 0.00 0.00 0.00 66 1007.7
20260508223347 91 0.0 0.0 0.00 0.00 0.00 65 1007.7
20260508222847 91 0.0 0.0 0.00 0.00 0.00 66 1007.7
20260508222347 91 0.0 0.0 0.00 0.00 0.00 66 1007.6
20260508221847 91 0.0 0.0 0.00 0.00 0.00 66 1007.6
20260508221347 91 0.0 0.0 0.00 0.00 0.00 65 1007.5
20260508220847 91 0.0 0.0 0.00 0.00 0.00 65 1007.4
20260508220346 91 0.0 0.0 0.00 0.00 0.00 65 1007.4
20260508215846 91 0.0 0.0 0.00 0.00 0.00 66 1007.3
20260508215346 91 0.0 0.0 0.00 0.00 0.00 65 1007.3
20260508214846 91 0.0 0.0 0.00 0.00 0.00 65 1007.2
20260508214347 91 0.0 0.0 0.00 0.00 0.00 65 1007.0
20260508213847 91 0.0 0.0 0.00 0.00 0.00 65 1007.0
20260508213346 92 0.0 0.0 0.00 0.00 0.00 64 1007.0
20260508212847 92 0.0 0.0 0.00 0.00 0.00 64 1006.8
20260508212346 92 0.0 0.0 0.00 0.00 0.00 64 1006.7
20260508211847 91 0.0 0.0 0.00 0.00 0.00 64 1006.6
20260508211346 91 0.0 0.0 0.00 0.00 0.00 65 1006.5
20260508210847 91 0.0 0.0 0.00 0.00 0.00 65 1006.5
20260508210347 91 0.0 0.0 0.00 0.00 0.00 65 1006.4
20260508205846 91 0.0 0.0 0.00 0.00 0.00 64 1006.2
20260508205346 91 0.0 0.0 0.00 0.00 0.00 65 1006.1
20260508204846 92 0.0 0.0 0.00 0.00 0.00 64 1006.0
20260508204346 92 0.0 0.0 0.00 0.00 0.00 63 1005.9
20260508203846 92 0.0 0.0 0.00 0.00 0.00 63 1006.0
20260508203346 92 0.0 0.0 0.00 0.00 0.00 64 1006.0
20260508202846 91 0.0 0.0 0.00 0.00 0.00 65 1005.9
20260508202346 91 0.0 0.0 0.00 0.00 0.00 65 1005.9
20260508201846 91 0.0 0.0 0.00 0.00 0.00 65 1005.9
20260508201346 92 0.0 0.0 0.00 0.00 0.00 64 1005.9
20260508200846 91 0.0 0.0 0.00 0.00 0.00 65 1006.2
20260508200346 92 0.0 0.0 0.00 0.00 0.00 64 1006.0
20260508195846 92 0.0 0.0 0.00 0.00 0.00 63 1006.1
20260508195346 92 0.0 0.0 0.00 0.00 0.00 64 1006.1
20260508194846 92 0.0 0.0 0.00 0.00 0.00 64 1006.2
20260508194346 92 0.0 0.0 0.00 0.00 0.00 63 1006.2
20260508193846 92 0.0 0.0 0.00 0.00 0.00 64 1006.2
20260508193346 92 0.0 0.0 0.00 0.00 0.00 64 1006.3
20260508192846 92 0.0 0.0 0.00 0.00 0.00 64 1006.3
20260508192346 92 0.0 0.0 0.00 0.00 0.00 63 1006.3
20260508191846 92 0.0 0.0 0.00 0.00 0.00 63 1006.4
20260508191346 93 0.0 0.0 0.00 0.00 0.00 62 1006.4
20260508190846 92 0.0 0.0 0.00 0.00 0.00 63 1006.4
20260508190345 92 0.0 0.0 0.00 0.00 0.00 63 1006.6
20260508185846 93 0.0 0.0 0.00 0.00 0.00 63 1006.6
20260508185346 93 0.0 0.0 0.00 0.00 0.00 62 1006.7
20260508184846 93 0.0 0.0 0.00 0.00 0.00 63 1006.7
20260508184346 93 0.0 0.0 0.00 0.00 0.00 62 1006.8
20260508183845 93 0.0 0.0 0.00 0.00 0.00 62 1006.8
20260508183345 94 0.0 0.0 0.00 0.00 0.00 61 1006.9
20260508182846 93 0.0 0.0 0.00 0.00 0.00 62 1007.1
20260508182346 93 0.0 0.0 0.00 0.00 0.00 62 1007.2
20260508181846 93 0.0 0.0 0.00 0.00 0.00 62 1007.2
20260508181346 93 0.0 0.0 0.00 0.00 0.00 62 1007.3
20260508180846 94 0.0 0.0 0.00 0.00 0.00 61 1007.2
20260508180346 94 0.0 0.0 0.00 0.00 0.00 61 1007.4
20260508175846 94 0.0 0.0 0.00 0.00 0.00 61 1007.5
20260508175346 94 0.0 0.0 0.00 0.00 0.00 61 1007.5
20260508174846 94 0.0 0.0 0.00 0.00 0.00 61 1007.5
20260508174346 93 0.0 0.0 0.00 0.00 0.00 62 1007.6
20260508173846 93 0.0 0.0 0.00 0.00 0.00 63 1007.7
20260508173346 93 0.0 0.0 0.00 0.00 0.00 63 1007.7
20260508172846 93 0.0 0.0 0.00 0.00 0.00 63 1007.8
20260508172346 93 0.0 0.0 0.00 0.00 0.00 63 1007.8
20260508171846 94 0.0 0.0 0.00 0.00 0.00 63 1007.8
20260508171346 93 0.0 0.0 0.00 0.00 0.00 63 1007.8
20260508170846 94 0.0 0.0 0.00 0.00 0.00 63 1007.9
20260508170346 92 0.0 0.0 0.00 0.00 0.00 65 1008.0
20260508165846 91 0.0 0.0 0.00 0.00 0.00 68 1008.2
20260508165346 90 0.0 0.0 0.00 0.00 0.00 69 1008.2
20260508164846 90 0.0 0.0 0.00 0.00 0.00 69 1008.3
20260508164346 90 0.0 0.0 0.00 0.00 0.00 70 1008.3
20260508163846 90 0.0 0.0 0.00 0.00 0.00 70 1008.4
20260508163345 90 0.0 0.0 0.00 0.00 0.00 71 1008.5
20260508162846 90 0.0 0.0 0.00 0.00 0.00 71 1008.5
20260508162346 90 0.0 0.0 0.00 0.00 0.00 71 1008.6
20260508161846 89 0.0 0.0 0.00 0.00 0.00 72 1008.5
20260508161346 90 0.0 0.0 0.00 0.00 0.00 71 1008.6
20260508160845 89 0.0 0.0 0.00 0.00 0.00 71 1008.6
20260508160346 90 0.0 0.0 0.00 0.00 0.00 71 1008.8
20260508155846 90 0.0 0.0 0.00 0.00 0.00 71 1008.7
20260508155346 90 0.0 0.0 0.00 0.00 0.00 71 1008.8
20260508154845 90 0.0 0.0 0.00 0.00 0.00 70 1008.7
20260508154345 90 0.0 0.0 0.00 0.00 0.00 70 1008.8
20260508153846 90 0.0 0.0 0.00 0.00 0.00 69 1008.8
20260508153345 89 0.0 0.0 0.00 0.00 0.00 70 1008.8
20260508152846 90 0.0 0.0 0.00 0.00 0.00 70 1008.8
20260508152345 90 0.0 0.0 0.00 0.00 0.00 71 1008.7
20260508151849 90 0.0 0.0 0.00 0.00 0.00 69 1008.8
20260508151345 90 0.0 0.0 0.00 0.00 0.00 69 1008.8
20260508150846 90 0.0 0.0 0.00 0.00 0.00 69 1008.7
20260508150345 90 0.0 0.0 0.00 0.00 0.00 69 1008.8
20260508145845 90 0.0 0.0 0.00 0.00 0.00 69 1008.7
20260508145346 90 0.0 0.0 0.00 0.00 0.00 69 1008.7
20260508144846 91 0.0 0.0 0.00 0.00 0.00 69 1008.6
20260508144345 91 0.0 0.0 0.00 0.00 0.00 68 1008.4
20260508143845 91 0.0 0.0 0.00 0.00 0.00 68 1008.3
20260508143346 91 0.0 0.0 0.00 0.00 0.00 68 1008.3
20260508142845 91 0.0 0.0 0.00 0.00 0.00 68 1008.2
20260508142345 91 0.0 0.0 0.00 0.00 0.00 68 1008.2
20260508141846 91 0.0 0.0 0.00 0.00 0.00 68 1008.2
20260508141345 91 0.0 0.0 0.00 0.00 0.00 67 1008.0
20260508140845 92 0.0 0.0 0.00 0.00 0.00 66 1007.9
20260508140346 92 0.0 0.0 0.00 0.00 0.00 66 1007.8
20260508135846 91 0.0 0.0 0.00 0.00 0.00 67 1007.8
20260508135345 91 0.0 0.0 0.00 0.00 0.00 67 1007.7
20260508134845 92 0.0 0.0 0.00 0.00 0.00 66 1007.6
20260508134346 91 0.0 0.0 0.00 0.00 0.00 66 1007.7
20260508133845 91 0.0 0.0 0.00 0.00 0.00 66 1007.4
20260508133345 91 0.0 0.0 0.00 0.00 0.00 67 1007.3
20260508132845 91 0.0 0.0 0.00 0.00 0.00 66 1007.1
20260508132345 91 0.0 0.0 0.00 0.00 0.00 66 1007.0
20260508131846 92 0.0 0.0 0.00 0.00 0.00 66 1006.9
20260508131346 91 0.0 0.0 0.00 0.00 0.00 66 1006.8
20260508130845 91 0.0 0.0 0.00 0.00 0.00 66 1006.7
20260508130345 91 0.0 0.0 0.00 0.00 0.00 66 1006.7
20260508125845 92 0.0 0.0 0.00 0.00 0.00 65 1006.5
20260508125345 91 0.0 0.0 0.00 0.00 0.00 65 1006.4
20260508124845 92 0.0 0.0 0.00 0.00 0.00 65 1006.3
20260508124345 91 0.0 0.0 0.00 0.00 0.00 66 1006.2
20260508123345 92 0.0 0.0 0.00 0.00 0.00 65 1006.0
20260508122845 91 0.0 0.0 0.00 0.00 0.00 65 1005.9
20260508122345 90 0.0 0.0 0.00 0.00 0.00 66 1005.9
20260508121845 91 0.0 0.0 0.00 0.00 0.00 65 1005.9
20260508121345 92 0.0 0.0 0.00 0.00 0.00 63 1005.6
20260508120845 92 0.0 0.0 0.00 0.00 0.00 63 1005.5
20260508120345 92 0.0 0.0 0.00 0.00 0.00 63 1005.4
20260508115846 92 0.0 0.0 0.00 0.00 0.00 63 1005.3
20260508114845 91 0.0 0.0 0.00 0.00 0.00 64 1005.0
20260508114345 92 0.0 0.0 0.00 0.00 0.00 63 1004.9
20260508113845 92 0.0 0.0 0.00 0.00 0.00 63 1004.9
20260508113345 92 0.0 0.0 0.00 0.00 0.00 63 1004.8
20260508112845 93 0.0 0.0 0.00 0.00 0.00 62 1004.7
20260508112345 93 0.0 0.0 0.00 0.00 0.00 62 1004.5
20260508111845 93 0.0 0.0 0.00 0.00 0.00 62 1004.5
20260508111345 93 0.0 0.0 0.00 0.00 0.00 62 1004.4
20260508110844 93 0.0 0.0 0.00 0.00 0.00 62 1004.3
20260508110345 93 0.0 0.0 0.00 0.00 0.00 62 1004.3
20260508105846 93 0.0 0.0 0.00 0.00 0.00 62 1004.2
20260508105345 92 0.0 0.0 0.00 0.00 0.00 62 1004.2
20260508104845 93 0.0 0.0 0.00 0.00 0.00 62 1004.2
20260508104345 93 0.0 0.0 0.00 0.00 0.00 62 1004.2
20260508103846 93 0.0 0.0 0.00 0.00 0.00 63 1004.1
20260508103345 93 0.0 0.0 0.00 0.00 0.00 62 1003.9
20260508102845 92 0.0 0.0 0.00 0.00 0.00 63 1003.8
20260508102345 92 0.0 0.0 0.00 0.00 0.00 63 1003.8
20260508101845 93 0.0 0.0 0.00 0.00 0.00 62 1003.7
20260508101345 93 0.0 0.0 0.00 0.00 0.00 62 1003.7
20260508100845 93 0.0 0.0 0.00 0.00 0.00 62 1003.6
20260508100345 93 0.0 0.0 0.00 0.00 0.00 62 1003.6
20260508095845 92 0.0 0.0 0.00 0.00 0.00 63 1003.6
20260508095345 92 0.0 0.0 0.00 0.00 0.00 62 1003.7
20260508094846 92 0.0 0.0 0.00 0.00 0.00 61 1003.7
20260508094344 92 0.0 0.0 0.00 0.00 0.00 61 1003.9
20260508093845 93 0.0 0.0 0.00 0.00 0.00 60 1003.6
20260508093345 93 0.0 0.0 0.00 0.00 0.00 59 1003.4
20260508092845 94 0.0 0.0 0.00 0.00 0.00 59 1003.7
20260508092345 94 0.0 0.0 0.00 0.00 0.00 58 1004.0
20260508091845 94 0.0 0.0 0.00 0.00 0.00 59 1004.2
20260508091346 94 0.0 0.0 0.00 0.00 0.00 59 1004.3
20260508090845 94 0.0 0.0 0.00 0.00 0.00 58 1004.2
20260508090345 95 0.0 0.0 0.00 0.00 0.00 57 1004.0
20260508085844 95 0.0 0.0 0.00 0.00 0.00 57 1003.8
20260508085345 95 0.0 0.0 0.00 0.00 0.00 58 1003.6
20260508084844 95 0.0 0.0 0.00 0.00 0.00 57 1003.7
20260508084344 95 0.0 0.0 0.00 0.00 0.00 57 1003.8
20260508083844 95 0.0 0.0 0.00 0.00 0.00 56 1003.7
20260508083345 96 0.0 0.0 0.00 0.00 0.00 54 1003.5
20260508082845 96 0.0 0.0 0.00 0.00 0.00 55 1003.4
20260508082345 96 0.0 0.0 0.00 0.00 0.00 54 1003.5
20260508081844 96 0.0 0.0 0.00 0.00 0.00 55 1003.4
20260508081344 96 0.0 0.0 0.00 0.00 0.00 54 1003.4
20260508080845 96 0.0 0.0 0.00 0.00 0.00 54 1003.2
20260508080344 96 0.0 0.0 0.00 0.00 0.00 53 1003.2
20260508075844 96 0.0 0.0 0.00 0.00 0.00 52 1003.3
20260508075344 96 0.0 0.0 0.00 0.00 0.00 52 1003.3
20260508074845 96 0.0 0.0 0.00 0.00 0.00 52 1003.3
20260508074345 96 0.0 0.0 0.00 0.00 0.00 52 1003.3
20260508073845 96 0.0 0.0 0.00 0.00 0.00 53 1003.3
20260508073344 96 0.0 0.0 0.00 0.00 0.00 54 1003.3
20260508072845 96 0.0 0.0 0.00 0.00 0.00 56 1003.2
20260508072344 96 0.0 0.0 0.00 0.00 0.00 58 1003.1
20260508071844 96 0.0 0.0 0.00 0.00 0.00 59 1003.1
20260508071344 96 0.0 0.0 0.00 0.00 0.00 59 1002.9
20260508070844 96 0.0 0.0 0.00 0.00 0.00 59 1002.9
20260508070344 96 0.0 0.0 0.00 0.00 0.00 59 1003.0
20260508065844 96 0.0 0.0 0.00 0.00 0.00 60 1003.2
20260508065344 96 0.0 0.0 0.00 0.00 0.00 60 1003.3
20260508064844 97 0.0 0.0 0.00 0.00 0.00 60 1003.3